Location: Bemmer
(51.5498°N, 5.6249°E)
Time: 12:48:49
(UTC+00:00)

SPOT 1/Viking Rocket - Pass Details

Date: 03 March 2021
Orbit: 778 x 793 km, 98.4° (Epoch: 16 April)

Event Time Altitude Azimuth Distance (km) Brightness Sun altitude
Exits shadow 20:29:57 53° 1° (N) 960 4.0 -29.1°
Drops below altitude 10° 20:33:56 10° 348° (NNW) 2,353 6.5 -29.7°
Sets 20:36:16 0° 347° (NNW) 3,289 7.4 -30.0°
